TimeMST,TemperatureF,Dew PointF,Humidity,Sea Level PressureIn,VisibilityMPH,Wind Direction,Wind SpeedMPH,Gust SpeedMPH,PrecipitationIn,Events,Conditions,WindDirDegrees,DateUTC
12:15 AM,41.0,41.0,100,29.88,10.0,SSE,4.6,-,N/A,Rain,Light Rain,160,2012-11-18 07:15:00
12:35 AM,41.0,41.0,100,29.87,10.0,Calm,Calm,-,N/A,,Overcast,0,2012-11-18 07:35:00
12:55 AM,41.0,41.0,100,29.88,3.0,SSE,3.5,-,N/A,Rain,Rain,160,2012-11-18 07:55:00
1:15 AM,41.0,41.0,100,29.87,7.0,Calm,Calm,-,N/A,Rain,Light Rain,0,2012-11-18 08:15:00
1:35 AM,41.0,39.2,93,29.87,5.0,South,3.5,-,N/A,Rain,Rain,190,2012-11-18 08:35:00
1:55 AM,39.2,39.2,100,29.86,10.0,Calm,Calm,-,N/A,,Light Drizzle,0,2012-11-18 08:55:00
2:15 AM,41.0,39.2,93,29.87,10.0,SSE,4.6,-,N/A,Rain,Light Rain,160,2012-11-18 09:15:00
2:35 AM,41.0,39.2,93,29.87,7.0,SSE,5.8,-,N/A,Rain,Light Rain,160,2012-11-18 09:35:00
2:55 AM,39.2,39.2,100,29.87,3.0,SSE,10.4,-,N/A,Rain,Light Rain,150,2012-11-18 09:55:00
3:15 AM,41.0,39.2,93,29.87,10.0,SE,11.5,19.6,N/A,Rain,Rain,130,2012-11-18 10:15:00
3:35 AM,41.0,39.2,93,29.86,10.0,SSE,11.5,-,N/A,,Light Drizzle,150,2012-11-18 10:35:00
4:15 AM,41.0,39.2,93,29.86,10.0,SE,9.2,18.4,N/A,,Light Drizzle,140,2012-11-18 11:15:00
4:35 AM,41.0,39.2,93,29.86,10.0,SSE,11.5,-,N/A,,Overcast,150,2012-11-18 11:35:00
4:55 AM,41.0,37.4,87,29.87,10.0,SSE,6.9,17.3,N/A,,Light Drizzle,160,2012-11-18 11:55:00
5:15 AM,41.0,37.4,87,29.88,10.0,SSE,6.9,-,N/A,,Overcast,160,2012-11-18 12:15:00
5:35 AM,42.8,35.6,76,29.89,10.0,SW,8.1,17.3,N/A,,Mostly Cloudy,230,2012-11-18 12:35:00
5:55 AM,42.8,35.6,76,29.89,10.0,South,5.8,-,N/A,,Light Drizzle,190,2012-11-18 12:55:00
6:47 AM,39.2,35.6,87,29.89,10.0,SE,6.9,-,N/A,,Overcast,140,2012-11-18 13:47:00
7:51 AM,35.6,35.6,100,29.93,10.0,East,9.2,-,N/A,,Overcast,100,2012-11-18 14:51:00
8:48 AM,35.6,35.6,100,29.95,10.0,South,3.5,-,N/A,,Overcast,170,2012-11-18 15:48:00
9:49 AM,37.4,33.8,87,29.98,10.0,ESE,8.1,-,N/A,,Scattered Clouds,120,2012-11-18 16:49:00
10:47 AM,39.2,28.4,65,29.99,10.0,ESE,6.9,-,N/A,,Scattered Clouds,120,2012-11-18 17:47:00
11:47 AM,39.2,28.4,65,30.00,10.0,ESE,11.5,-,N/A,,Mostly Cloudy,120,2012-11-18 18:47:00
12:47 PM,42.8,28.4,57,30.00,10.0,SE,11.5,-,N/A,,Mostly Cloudy,130,2012-11-18 19:47:00
1:47 PM,42.8,17.6,36,29.99,10.0,SE,11.5,-,N/A,,Mostly Cloudy,140,2012-11-18 20:47:00
2:54 PM,42.8,17.6,36,30.00,10.0,Calm,Calm,-,N/A,,Mostly Cloudy,0,2012-11-18 21:54:00
3:50 PM,41.0,19.4,42,30.02,10.0,South,3.5,-,N/A,,Mostly Cloudy,170,2012-11-18 22:50:00
4:47 PM,39.2,19.4,45,30.03,10.0,South,4.6,-,N/A,,Mostly Cloudy,180,2012-11-18 23:47:00
5:47 PM,37.4,21.2,52,30.06,10.0,SE,3.5,-,N/A,,Mostly Cloudy,130,2012-11-19 00:47:00
6:47 PM,35.6,28.4,75,30.07,10.0,ESE,8.1,-,N/A,,Scattered Clouds,120,2012-11-19 01:47:00
7:47 PM,33.8,28.4,81,30.09,10.0,Calm,Calm,-,N/A,,Scattered Clouds,0,2012-11-19 02:47:00
8:47 PM,32.0,24.8,75,30.10,10.0,West,4.6,-,N/A,,Scattered Clouds,280,2012-11-19 03:47:00
10:15 PM,32.0,26.6,80,30.12,10.0,NW,5.8,-,N/A,,Overcast,310,2012-11-19 05:15:00
10:35 PM,32.0,26.6,80,30.12,10.0,NW,6.9,-,N/A,,Overcast,320,2012-11-19 05:35:00
10:47 PM,33.8,24.8,70,30.13,10.0,NW,8.1,-,N/A,,Overcast,310,2012-11-19 05:47:00
10:55 PM,32.0,26.6,80,30.13,10.0,NNW,9.2,-,N/A,,Overcast,330,2012-11-19 05:55:00
11:15 PM,32.0,26.6,80,30.13,10.0,NNW,6.9,-,N/A,,Overcast,340,2012-11-19 06:15:00
11:35 PM,32.0,26.6,80,30.14,10.0,North,4.6,-,N/A,,Overcast,350,2012-11-19 06:35:00